Time,TemperatureF,DewpointF,PressureIn,WindDirection,WindDirectionDegrees,WindSpeedMPH,WindSpeedGustMPH,Humidity,HourlyPrecipIn,Conditions,Clouds,dailyrainin,SolarRadiationWatts/m^2,SoftwareType,DateUTC
2013-03-08 00:01:00,27.0,22.0,-100.00,NNE,30,1.0,6.0,80,0.00,,,0.00,0.000000,,2013-03-08 07:01:00,
2013-03-08 00:11:00,27.0,22.0,-100.00,NNE,30,1.0,6.0,80,0.00,,,0.00,0.000000,,2013-03-08 07:11:00,
2013-03-08 00:22:00,27.0,22.0,-100.00,NNE,30,1.0,6.0,80,0.00,,,0.00,0.000000,,2013-03-08 07:22:00,
2013-03-08 00:31:00,27.0,22.0,-100.00,NNE,30,1.0,6.0,80,0.00,,,0.00,0.000000,,2013-03-08 07:31:00,
2013-03-08 00:52:00,28.0,23.0,-100.00,South,170,1.0,2.0,81,0.00,,,0.00,0.000000,,2013-03-08 07:52:00,
2013-03-08 01:01:00,28.0,23.0,-100.00,South,170,1.0,2.0,81,0.00,,,0.00,0.000000,,2013-03-08 08:01:00,
2013-03-08 01:11:00,28.0,23.0,-100.00,South,170,1.0,2.0,81,0.00,,,0.00,0.000000,,2013-03-08 08:11:00,
2013-03-08 01:22:00,28.0,23.0,-100.00,South,170,1.0,2.0,81,0.00,,,0.00,0.000000,,2013-03-08 08:22:00,
2013-03-08 01:32:00,28.0,23.0,-100.00,South,170,1.0,2.0,81,0.00,,,0.00,0.000000,,2013-03-08 08:32:00,
2013-03-08 01:52:00,29.0,22.0,-100.00,SE,138,1.0,7.0,76,0.00,,,0.00,0.000000,,2013-03-08 08:52:00,
2013-03-08 02:03:00,29.0,22.0,-100.00,SE,138,1.0,7.0,76,0.00,,,0.00,0.000000,,2013-03-08 09:03:00,
2013-03-08 02:11:00,29.0,22.0,-100.00,SE,138,1.0,7.0,76,0.00,,,0.00,0.000000,,2013-03-08 09:11:00,
2013-03-08 02:21:00,29.0,22.0,-100.00,SE,138,1.0,7.0,76,0.00,,,0.00,0.000000,,2013-03-08 09:21:00,
2013-03-08 02:32:00,29.0,22.0,-100.00,SE,138,1.0,7.0,76,0.00,,,0.00,0.000000,,2013-03-08 09:32:00,
2013-03-08 03:01:00,31.0,21.0,-100.00,East,93,2.0,5.0,66,0.00,,,0.00,0.000000,,2013-03-08 10:01:00,
2013-03-08 03:11:00,31.0,21.0,-100.00,East,93,2.0,5.0,66,0.00,,,0.00,0.000000,,2013-03-08 10:11:00,
2013-03-08 03:21:00,31.0,21.0,-100.00,East,93,2.0,5.0,66,0.00,,,0.00,0.000000,,2013-03-08 10:21:00,
2013-03-08 03:32:00,31.0,21.0,-100.00,East,93,2.0,5.0,66,0.00,,,0.00,0.000000,,2013-03-08 10:32:00,
2013-03-08 04:01:00,30.0,19.0,-100.00,ESE,103,4.0,12.0,62,0.00,,,0.00,0.000000,,2013-03-08 11:01:00,
2013-03-08 04:11:00,30.0,19.0,-100.00,ESE,103,4.0,12.0,62,0.00,,,0.00,0.000000,,2013-03-08 11:11:00,
2013-03-08 04:21:00,30.0,19.0,-100.00,ESE,103,4.0,12.0,62,0.00,,,0.00,0.000000,,2013-03-08 11:21:00,
2013-03-08 04:32:00,30.0,19.0,-100.00,ESE,103,4.0,12.0,62,0.00,,,0.00,0.000000,,2013-03-08 11:32:00,
2013-03-08 04:52:00,30.0,15.0,-100.00,ESE,108,5.0,10.0,54,0.00,,,0.00,0.000000,,2013-03-08 11:52:00,
2013-03-08 05:02:00,30.0,15.0,-100.00,ESE,108,5.0,10.0,54,0.00,,,0.00,0.000000,,2013-03-08 12:02:00,
2013-03-08 05:11:00,30.0,15.0,-100.00,ESE,108,5.0,10.0,54,0.00,,,0.00,0.000000,,2013-03-08 12:11:00,
2013-03-08 05:22:00,30.0,15.0,-100.00,ESE,108,5.0,10.0,54,0.00,,,0.00,0.000000,,2013-03-08 12:22:00,
2013-03-08 05:32:00,30.0,15.0,-100.00,ESE,108,5.0,10.0,54,0.00,,,0.00,0.000000,,2013-03-08 12:32:00,
2013-03-08 06:01:00,30.0,9.0,-100.00,ESE,102,8.0,17.0,40,0.00,,,0.00,0.000000,,2013-03-08 13:01:00,
2013-03-08 06:11:00,30.0,9.0,-100.00,ESE,102,8.0,17.0,40,0.00,,,0.00,0.000000,,2013-03-08 13:11:00,
2013-03-08 06:21:00,30.0,9.0,-100.00,ESE,102,8.0,17.0,40,0.00,,,0.00,0.000000,,2013-03-08 13:21:00,
2013-03-08 06:32:00,30.0,9.0,-100.00,ESE,102,8.0,17.0,40,0.00,,,0.00,0.000000,,2013-03-08 13:32:00,
2013-03-08 07:02:00,31.0,6.0,-100.00,East,100,7.0,17.0,34,0.00,,,0.00,2.000000,,2013-03-08 14:02:00,
2013-03-08 07:11:00,31.0,6.0,-100.00,East,100,7.0,17.0,34,0.00,,,0.00,2.000000,,2013-03-08 14:11:00,
2013-03-08 07:22:00,31.0,6.0,-100.00,East,100,7.0,17.0,34,0.00,,,0.00,2.000000,,2013-03-08 14:22:00,
2013-03-08 07:32:00,31.0,6.0,-100.00,East,100,7.0,17.0,34,0.00,,,0.00,2.000000,,2013-03-08 14:32:00,
2013-03-08 08:03:00,32.0,12.0,-100.00,ESE,109,9.0,19.0,43,0.00,,,0.00,41.000000,,2013-03-08 15:03:00,
2013-03-08 08:12:00,32.0,12.0,-100.00,ESE,109,9.0,19.0,43,0.00,,,0.00,41.000000,,2013-03-08 15:12:00,
2013-03-08 08:22:00,32.0,12.0,-100.00,ESE,109,9.0,19.0,43,0.00,,,0.00,41.000000,,2013-03-08 15:22:00,
2013-03-08 08:32:00,32.0,12.0,-100.00,ESE,109,9.0,19.0,43,0.00,,,0.00,41.000000,,2013-03-08 15:32:00,
2013-03-08 09:01:00,33.0,17.0,-100.00,ESE,109,8.0,19.0,51,0.00,,,0.00,151.000000,,2013-03-08 16:01:00,
2013-03-08 09:11:00,33.0,17.0,-100.00,ESE,109,8.0,19.0,51,0.00,,,0.00,151.000000,,2013-03-08 16:11:00,
2013-03-08 09:22:00,33.0,17.0,-100.00,ESE,109,8.0,19.0,51,0.00,,,0.00,151.000000,,2013-03-08 16:22:00,
2013-03-08 09:32:00,33.0,17.0,-100.00,ESE,109,8.0,19.0,51,0.00,,,0.00,151.000000,,2013-03-08 16:32:00,
2013-03-08 10:03:00,34.0,20.0,-100.00,ESE,112,8.0,16.0,56,0.00,,,0.00,264.000000,,2013-03-08 17:03:00,
2013-03-08 10:11:00,34.0,20.0,-100.00,ESE,112,8.0,16.0,56,0.00,,,0.00,264.000000,,2013-03-08 17:11:00,
2013-03-08 10:21:00,34.0,20.0,-100.00,ESE,112,8.0,16.0,56,0.00,,,0.00,264.000000,,2013-03-08 17:21:00,
2013-03-08 10:32:00,34.0,20.0,-100.00,ESE,112,8.0,16.0,56,0.00,,,0.00,264.000000,,2013-03-08 17:32:00,
2013-03-08 11:02:00,34.0,21.0,-100.00,East,96,6.0,16.0,58,0.00,,,0.00,288.000000,,2013-03-08 18:02:00,
2013-03-08 11:11:00,34.0,21.0,-100.00,East,96,6.0,16.0,58,0.00,,,0.00,288.000000,,2013-03-08 18:11:00,
2013-03-08 11:21:00,34.0,21.0,-100.00,East,96,6.0,16.0,58,0.00,,,0.00,288.000000,,2013-03-08 18:21:00,
2013-03-08 11:32:00,34.0,21.0,-100.00,East,96,6.0,16.0,58,0.00,,,0.00,288.000000,,2013-03-08 18:32:00,
2013-03-08 12:01:00,35.0,23.0,-100.00,ESE,121,9.0,20.0,61,0.00,,,0.00,335.000000,,2013-03-08 19:01:00,
2013-03-08 12:11:00,35.0,23.0,-100.00,ESE,121,9.0,20.0,61,0.00,,,0.00,335.000000,,2013-03-08 19:11:00,
2013-03-08 12:22:00,35.0,23.0,-100.00,ESE,121,9.0,20.0,61,0.00,,,0.00,335.000000,,2013-03-08 19:22:00,
2013-03-08 12:32:00,35.0,23.0,-100.00,ESE,121,9.0,20.0,61,0.00,,,0.00,335.000000,,2013-03-08 19:32:00,
2013-03-08 13:01:00,38.0,23.0,-100.00,ESE,102,4.0,16.0,54,0.00,,,0.00,390.000000,,2013-03-08 20:01:00,
2013-03-08 13:11:00,38.0,23.0,-100.00,ESE,102,4.0,16.0,54,0.00,,,0.00,390.000000,,2013-03-08 20:11:00,
2013-03-08 13:21:00,38.0,23.0,-100.00,ESE,102,4.0,16.0,54,0.00,,,0.00,390.000000,,2013-03-08 20:21:00,
2013-03-08 13:32:00,38.0,23.0,-100.00,ESE,102,4.0,16.0,54,0.00,,,0.00,390.000000,,2013-03-08 20:32:00,
2013-03-08 13:53:00,40.0,23.0,-100.00,SE,138,4.0,10.0,51,0.00,,,0.00,450.000000,,2013-03-08 20:53:00,
2013-03-08 14:02:00,40.0,23.0,-100.00,SE,138,4.0,10.0,51,0.00,,,0.00,450.000000,,2013-03-08 21:02:00,
2013-03-08 14:11:00,40.0,23.0,-100.00,SE,138,4.0,10.0,51,0.00,,,0.00,450.000000,,2013-03-08 21:11:00,
2013-03-08 14:21:00,40.0,23.0,-100.00,SE,138,4.0,10.0,51,0.00,,,0.00,450.000000,,2013-03-08 21:21:00,
2013-03-08 14:32:00,40.0,23.0,-100.00,SE,138,4.0,10.0,51,0.00,,,0.00,450.000000,,2013-03-08 21:32:00,
2013-03-08 15:01:00,38.0,24.0,-100.00,SSE,164,6.0,11.0,56,0.00,,,0.00,384.000000,,2013-03-08 22:01:00,
2013-03-08 15:11:00,38.0,24.0,-100.00,SSE,164,6.0,11.0,56,0.00,,,0.00,384.000000,,2013-03-08 22:11:00,
2013-03-08 15:22:00,38.0,24.0,-100.00,SSE,164,6.0,11.0,56,0.00,,,0.00,384.000000,,2013-03-08 22:22:00,
2013-03-08 15:32:00,38.0,24.0,-100.00,SSE,164,6.0,11.0,56,0.00,,,0.00,384.000000,,2013-03-08 22:32:00,
2013-03-08 16:01:00,38.0,25.0,-100.00,SSE,164,5.0,10.0,58,0.00,,,0.00,290.000000,,2013-03-08 23:01:00,
2013-03-08 16:12:00,38.0,25.0,-100.00,SSE,164,5.0,10.0,58,0.00,,,0.00,290.000000,,2013-03-08 23:12:00,
2013-03-08 16:22:00,38.0,25.0,-100.00,SSE,164,5.0,10.0,58,0.00,,,0.00,290.000000,,2013-03-08 23:22:00,
2013-03-08 16:32:00,38.0,25.0,-100.00,SSE,164,5.0,10.0,58,0.00,,,0.00,290.000000,,2013-03-08 23:32:00,
2013-03-08 16:53:00,37.0,26.0,-100.00,South,177,4.0,8.0,63,0.00,,,0.00,143.000000,,2013-03-08 23:53:00,
2013-03-08 17:02:00,37.0,26.0,-100.00,South,177,4.0,8.0,63,0.00,,,0.00,143.000000,,2013-03-09 00:02:00,
2013-03-08 17:11:00,37.0,26.0,-100.00,South,177,4.0,8.0,63,0.00,,,0.00,143.000000,,2013-03-09 00:11:00,
2013-03-08 17:22:00,37.0,26.0,-100.00,South,177,4.0,8.0,63,0.00,,,0.00,143.000000,,2013-03-09 00:22:00,
2013-03-08 17:32:00,37.0,26.0,-100.00,South,177,4.0,8.0,63,0.00,,,0.00,143.000000,,2013-03-09 00:32:00,
2013-03-08 18:01:00,34.0,25.0,-100.00,SSE,164,3.0,7.0,68,0.00,,,0.00,53.000000,,2013-03-09 01:01:00,
2013-03-08 18:12:00,34.0,25.0,-100.00,SSE,164,3.0,7.0,68,0.00,,,0.00,53.000000,,2013-03-09 01:12:00,
2013-03-08 18:22:00,34.0,25.0,-100.00,SSE,164,3.0,7.0,68,0.00,,,0.00,53.000000,,2013-03-09 01:22:00,
2013-03-08 18:32:00,34.0,25.0,-100.00,SSE,164,3.0,7.0,68,0.00,,,0.00,53.000000,,2013-03-09 01:32:00,
2013-03-08 20:52:00,28.0,24.0,-100.00,South,175,1.0,3.0,83,-99.99,,,0.00,0.000000,,2013-03-09 03:52:00,
2013-03-08 21:01:00,28.0,24.0,-100.00,South,175,1.0,3.0,83,-99.99,,,0.00,0.000000,,2013-03-09 04:01:00,
2013-03-08 21:11:00,28.0,24.0,-100.00,South,175,1.0,3.0,83,-99.99,,,0.00,0.000000,,2013-03-09 04:11:00,
2013-03-08 21:22:00,28.0,24.0,-100.00,South,175,1.0,3.0,83,-99.99,,,0.00,0.000000,,2013-03-09 04:22:00,
2013-03-08 21:32:00,28.0,24.0,-100.00,South,175,1.0,3.0,83,-99.99,,,0.00,0.000000,,2013-03-09 04:32:00,
2013-03-08 21:52:00,26.0,22.0,-100.00,East,98,0.0,4.0,86,0.00,,,0.00,0.000000,,2013-03-09 04:52:00,
2013-03-08 22:02:00,26.0,22.0,-100.00,East,98,0.0,4.0,86,0.00,,,0.00,0.000000,,2013-03-09 05:02:00,
2013-03-08 22:12:00,26.0,22.0,-100.00,East,98,0.0,4.0,86,0.00,,,0.00,0.000000,,2013-03-09 05:12:00,
2013-03-08 22:22:00,26.0,22.0,-100.00,East,98,0.0,4.0,86,0.00,,,0.00,0.000000,,2013-03-09 05:22:00,
2013-03-08 22:31:00,26.0,22.0,-100.00,East,98,0.0,4.0,86,0.00,,,0.00,0.000000,,2013-03-09 05:31:00,
2013-03-08 22:53:00,25.0,22.0,-100.00,NNE,25,1.0,4.0,88,0.00,,,0.00,0.000000,,2013-03-09 05:53:00,
2013-03-08 23:02:00,25.0,22.0,-100.00,NNE,25,1.0,4.0,88,0.00,,,0.00,0.000000,,2013-03-09 06:02:00,
2013-03-08 23:11:00,25.0,22.0,-100.00,NNE,25,1.0,4.0,88,0.00,,,0.00,0.000000,,2013-03-09 06:11:00,
2013-03-08 23:22:00,25.0,22.0,-100.00,NNE,25,1.0,4.0,88,0.00,,,0.00,0.000000,,2013-03-09 06:22:00,
2013-03-08 23:32:00,25.0,22.0,-100.00,NNE,25,1.0,4.0,88,0.00,,,0.00,0.000000,,2013-03-09 06:32:00,